VSP1506 SBSP-SBCT

Flight info

Callsign VSP1506
Flight time 0h 35m
Altitude 28000
Route SOVSI UZ85 RAXIT
Aircraft B738/M-SDE2E3FGHIRWXY/LB1

Departure

Time 2026-05-04 19:48
Airport Congonhas–Deputado Freitas Nobre Airport (SBSP)

Arrival

Time 2026-05-04 20:24
Airport Curitiba-Afonso Pena International Airport (SBCT)
Time Latitude Longitude Altitude Speed Heading
2026-05-04 19:32 -23.62631 -46.65878 2615 ft 0 kts 237°
2026-05-04 19:40 -23.62627 -46.65871 2615 ft 2 kts 228°
2026-05-04 19:40 -23.62615 -46.65859 2615 ft 2 kts 210°
2026-05-04 19:41 -23.62599 -46.65854 2615 ft 2 kts 171°
2026-05-04 19:41 -23.62584 -46.65860 2614 ft 2 kts 150°
2026-05-04 19:41 -23.62579 -46.65863 2614 ft 0 kts 149°
2026-05-04 19:43 -23.62579 -46.65862 2614 ft 1 kts 149°
2026-05-04 19:43 -23.62597 -46.65841 2615 ft 7 kts 123°
2026-05-04 19:44 -23.62638 -46.65780 2617 ft 13 kts 136°
2026-05-04 19:44 -23.62722 -46.65715 2620 ft 17 kts 148°
2026-05-04 19:44 -23.62829 -46.65641 2625 ft 20 kts 147°
2026-05-04 19:44 -23.62959 -46.65551 2627 ft 22 kts 147°
2026-05-04 19:45 -23.63092 -46.65496 2634 ft 20 kts 150°
2026-05-04 19:45 -23.63209 -46.65415 2639 ft 20 kts 147°
2026-05-04 19:45 -23.63323 -46.65336 2642 ft 19 kts 147°
2026-05-04 19:45 -23.63415 -46.65272 2642 ft 10 kts 147°
2026-05-04 19:46 -23.63468 -46.65235 2641 ft 6 kts 147°
2026-05-04 19:46 -23.63475 -46.65230 2641 ft 1 kts 147°
2026-05-04 19:46 -23.63492 -46.65217 2641 ft 7 kts 142°
2026-05-04 19:46 -23.63486 -46.65145 2638 ft 15 kts 43°
2026-05-04 19:47 -23.63410 -46.65130 2638 ft 7 kts 327°
2026-05-04 19:47 -23.63398 -46.65139 2639 ft 15 kts 326°
2026-05-04 19:47 -23.63061 -46.65373 2637 ft 99 kts 327°
2026-05-04 19:47 -23.62253 -46.65935 2606 ft 173 kts 327°
2026-05-04 19:48 -23.61119 -46.66674 3019 ft 205 kts 327°
2026-05-04 19:48 -23.59893 -46.67489 3953 ft 201 kts 327°
2026-05-04 19:48 -23.58855 -46.68502 4723 ft 207 kts 302°
2026-05-04 19:48 -23.58286 -46.69926 5574 ft 200 kts 286°
2026-05-04 19:49 -23.58056 -46.71399 6374 ft 203 kts 278°
2026-05-04 19:49 -23.57845 -46.73025 6692 ft 225 kts 280°
2026-05-04 19:49 -23.57573 -46.74718 7264 ft 232 kts 282°
2026-05-04 19:49 -23.57331 -46.76491 7810 ft 246 kts 270°
2026-05-04 19:50 -23.57812 -46.78398 7775 ft 274 kts 240°
2026-05-04 19:50 -23.59196 -46.79848 7796 ft 284 kts 211°
2026-05-04 19:50 -23.60882 -46.80962 7767 ft 281 kts 229°
2026-05-04 19:50 -23.62019 -46.82654 7795 ft 277 kts 236°
2026-05-04 19:51 -23.63223 -46.84309 7777 ft 279 kts 233°
2026-05-04 19:51 -23.64483 -46.85928 7776 ft 279 kts 232°
2026-05-04 19:51 -23.65745 -46.87540 7776 ft 280 kts 232°
2026-05-04 19:51 -23.66993 -46.89147 7766 ft 280 kts 233°
2026-05-04 19:52 -23.68268 -46.90803 7994 ft 283 kts 233°
2026-05-04 19:52 -23.69534 -46.92460 8919 ft 283 kts 233°
2026-05-04 19:52 -23.70771 -46.94086 9929 ft 283 kts 233°
2026-05-04 19:52 -23.72041 -46.95762 10664 ft 293 kts 232°
2026-05-04 19:53 -23.73396 -46.97561 10880 ft 320 kts 232°
2026-05-04 19:53 -23.74862 -46.99509 11168 ft 341 kts 232°
2026-05-04 19:53 -23.76393 -47.01543 11766 ft 351 kts 232°
2026-05-04 19:53 -23.77949 -47.03612 12520 ft 354 kts 232°
2026-05-04 19:54 -23.79522 -47.05703 13331 ft 357 kts 231°
2026-05-04 19:54 -23.81101 -47.07804 14131 ft 359 kts 232°
2026-05-04 19:54 -23.82688 -47.09920 14835 ft 361 kts 232°
2026-05-04 19:54 -23.84289 -47.12053 15531 ft 364 kts 232°
2026-05-04 19:55 -23.85896 -47.14198 16172 ft 368 kts 232°
2026-05-04 19:55 -23.87530 -47.16380 16834 ft 371 kts 232°
2026-05-04 19:55 -23.89157 -47.18553 17478 ft 375 kts 232°
2026-05-04 19:55 -23.90815 -47.20768 18124 ft 378 kts 232°
2026-05-04 19:56 -23.92493 -47.23012 18698 ft 381 kts 232°
2026-05-04 19:56 -23.94177 -47.25264 19258 ft 384 kts 232°
2026-05-04 19:56 -23.95868 -47.27527 19835 ft 386 kts 232°
2026-05-04 19:56 -23.97570 -47.29806 20410 ft 387 kts 232°
2026-05-04 19:57 -23.99280 -47.32096 20953 ft 390 kts 232°
2026-05-04 19:57 -24.01005 -47.34407 21502 ft 393 kts 232°
2026-05-04 19:57 -24.02726 -47.36715 22030 ft 395 kts 232°
2026-05-04 19:57 -24.04455 -47.39034 22608 ft 396 kts 232°
2026-05-04 19:58 -24.06221 -47.41404 23128 ft 399 kts 232°
2026-05-04 19:58 -24.07960 -47.43739 23616 ft 401 kts 232°
2026-05-04 19:58 -24.09777 -47.46072 24028 ft 405 kts 227°
2026-05-04 19:58 -24.11875 -47.48157 24472 ft 408 kts 219°
2026-05-04 19:59 -24.14236 -47.49896 24959 ft 409 kts 214°
2026-05-04 19:59 -24.16627 -47.51528 25626 ft 404 kts 214°
2026-05-04 19:59 -24.19012 -47.53146 26287 ft 401 kts 214°
2026-05-04 19:59 -24.21374 -47.54757 26886 ft 399 kts 215°
2026-05-04 20:00 -24.23699 -47.56342 27418 ft 393 kts 214°
2026-05-04 20:00 -24.26003 -47.57927 28004 ft 390 kts 215°
2026-05-04 20:00 -24.28312 -47.59540 28089 ft 399 kts 215°
2026-05-04 20:01 -24.32996 -47.62820 28092 ft 396 kts 215°
2026-05-04 20:01 -24.36829 -47.65495 28105 ft 393 kts 215°
2026-05-04 20:02 -24.41468 -47.68734 28105 ft 396 kts 216°
2026-05-04 20:02 -24.45682 -47.72582 28103 ft 393 kts 225°
2026-05-04 20:03 -24.49637 -47.76733 28101 ft 393 kts 225°
2026-05-04 20:03 -24.53604 -47.80869 28105 ft 393 kts 225°
2026-05-04 20:04 -24.57567 -47.84943 28099 ft 392 kts 225°
2026-05-04 20:04 -24.61543 -47.89008 28110 ft 393 kts 225°
2026-05-04 20:05 -24.65649 -47.93209 28114 ft 412 kts 225°
2026-05-04 20:05 -24.67762 -47.95371 27976 ft 418 kts 225°
2026-05-04 20:05 -24.69896 -47.97555 27576 ft 416 kts 225°
2026-05-04 20:05 -24.72014 -47.99722 27111 ft 414 kts 224°
2026-05-04 20:06 -24.74122 -48.01879 26598 ft 414 kts 224°
2026-05-04 20:06 -24.76238 -48.04049 26109 ft 418 kts 224°
2026-05-04 20:06 -24.78373 -48.06239 25604 ft 420 kts 224°
2026-05-04 20:06 -24.80514 -48.08436 25076 ft 419 kts 224°
2026-05-04 20:07 -24.82633 -48.10610 24558 ft 413 kts 224°
2026-05-04 20:07 -24.84720 -48.12753 24051 ft 408 kts 224°
2026-05-04 20:07 -24.86761 -48.14850 23527 ft 406 kts 224°
2026-05-04 20:07 -24.88846 -48.16995 22970 ft 404 kts 224°
2026-05-04 20:08 -24.90868 -48.19075 22455 ft 401 kts 224°
2026-05-04 20:08 -24.92895 -48.21161 21966 ft 398 kts 224°
2026-05-04 20:08 -24.94916 -48.23242 21483 ft 396 kts 224°
2026-05-04 20:08 -24.96923 -48.25313 20997 ft 395 kts 225°
2026-05-04 20:09 -24.98651 -48.27642 20430 ft 394 kts 240°
2026-05-04 20:09 -24.99897 -48.30353 19871 ft 395 kts 245°
2026-05-04 20:09 -25.01068 -48.33089 19361 ft 394 kts 245°
2026-05-04 20:09 -25.02236 -48.35807 18889 ft 391 kts 244°
2026-05-04 20:10 -25.03419 -48.38500 18429 ft 389 kts 244°
2026-05-04 20:10 -25.04609 -48.41169 17890 ft 386 kts 244°
2026-05-04 20:10 -25.05795 -48.43816 17405 ft 382 kts 244°
2026-05-04 20:10 -25.06965 -48.46427 16932 ft 378 kts 244°
2026-05-04 20:11 -25.08112 -48.48985 16477 ft 375 kts 244°
2026-05-04 20:11 -25.09262 -48.51553 16013 ft 372 kts 244°
2026-05-04 20:11 -25.10401 -48.54097 15595 ft 368 kts 244°
2026-05-04 20:11 -25.11531 -48.56625 15159 ft 366 kts 244°
2026-05-04 20:12 -25.12577 -48.59174 14815 ft 361 kts 249°
2026-05-04 20:12 -25.13440 -48.61750 14593 ft 358 kts 251°
2026-05-04 20:12 -25.14261 -48.64352 14373 ft 361 kts 251°
2026-05-04 20:12 -25.15083 -48.66981 14139 ft 361 kts 251°
2026-05-04 20:13 -25.15904 -48.69591 13901 ft 358 kts 251°
2026-05-04 20:13 -25.16726 -48.72181 13650 ft 356 kts 251°
2026-05-04 20:13 -25.17548 -48.74753 13394 ft 355 kts 251°
2026-05-04 20:13 -25.18371 -48.77315 13140 ft 353 kts 251°
2026-05-04 20:14 -25.19195 -48.79872 12888 ft 353 kts 251°
2026-05-04 20:14 -25.20005 -48.82385 12630 ft 351 kts 251°
2026-05-04 20:14 -25.20824 -48.84928 12397 ft 351 kts 251°
2026-05-04 20:14 -25.21643 -48.87467 12149 ft 351 kts 251°
2026-05-04 20:15 -25.22457 -48.89993 11906 ft 346 kts 251°
2026-05-04 20:15 -25.23252 -48.92461 11655 ft 336 kts 251°
2026-05-04 20:15 -25.24027 -48.94869 11316 ft 330 kts 251°
2026-05-04 20:15 -25.24791 -48.97242 10939 ft 325 kts 251°
2026-05-04 20:16 -25.25543 -48.99584 10612 ft 320 kts 251°
2026-05-04 20:16 -25.26274 -49.01861 10456 ft 309 kts 252°
2026-05-04 20:16 -25.26966 -49.04071 10308 ft 298 kts 257°
2026-05-04 20:16 -25.27017 -49.06310 10058 ft 291 kts 282°
2026-05-04 20:17 -25.26572 -49.08427 9810 ft 285 kts 272°
2026-05-04 20:17 -25.27028 -49.10524 9551 ft 283 kts 243°
2026-05-04 20:17 -25.28030 -49.12370 9325 ft 278 kts 241°
2026-05-04 20:17 -25.28992 -49.14210 9071 ft 274 kts 243°
2026-05-04 20:18 -25.29885 -49.16057 8830 ft 270 kts 245°
2026-05-04 20:18 -25.30723 -49.17899 8577 ft 267 kts 246°
2026-05-04 20:18 -25.31534 -49.19734 8253 ft 267 kts 247°
2026-05-04 20:18 -25.32355 -49.21615 7736 ft 275 kts 247°
2026-05-04 20:19 -25.33199 -49.23485 7515 ft 271 kts 242°
2026-05-04 20:19 -25.34448 -49.25065 7328 ft 270 kts 227°
2026-05-04 20:19 -25.35778 -49.26441 7252 ft 260 kts 227°
2026-05-04 20:19 -25.37095 -49.27819 6892 ft 263 kts 228°
2026-05-04 20:20 -25.38423 -49.29208 6605 ft 262 kts 225°
2026-05-04 20:20 -25.40064 -49.30073 6248 ft 264 kts 192°
2026-05-04 20:20 -25.41830 -49.29796 5886 ft 257 kts 155°
2026-05-04 20:20 -25.43157 -49.28575 5575 ft 241 kts 134°
2026-05-04 20:21 -25.44256 -49.27270 5197 ft 229 kts 134°
2026-05-04 20:21 -25.45335 -49.26032 4904 ft 213 kts 135°
2026-05-04 20:21 -25.47283 -49.23841 4361 ft 189 kts 134°
2026-05-04 20:22 -25.48160 -49.22852 4152 ft 172 kts 134°
2026-05-04 20:22 -25.48955 -49.21955 3930 ft 159 kts 134°
2026-05-04 20:22 -25.49706 -49.21110 3713 ft 150 kts 133°
2026-05-04 20:22 -25.50424 -49.20300 3519 ft 146 kts 133°
2026-05-04 20:23 -25.51141 -49.19489 3320 ft 147 kts 133°
2026-05-04 20:23 -25.51862 -49.18685 3121 ft 147 kts 133°
2026-05-04 20:23 -25.52576 -49.17886 2985 ft 142 kts 131°
2026-05-04 20:23 -25.53176 -49.17207 2984 ft 104 kts 134°
2026-05-04 20:24 -25.53537 -49.16806 2980 ft 30 kts 133°
2026-05-04 20:24 -25.53613 -49.16797 2980 ft 13 kts 256°
2026-05-04 20:24 -25.53612 -49.16897 2980 ft 13 kts 270°
2026-05-04 20:24 -25.53629 -49.16989 2980 ft 12 kts 225°
2026-05-04 20:25 -25.53673 -49.17012 2980 ft 6 kts 216°
2026-05-04 20:25 -25.53706 -49.17045 2980 ft 6 kts 225°